www.pogodaiklimat.ru

Погода и климат >> Архив погоды >> Аргентина >> La Plata


ПОГОДА в La Plata

  • Прогноз погоды в La Plata
  • Монитор погоды в La Plata
  • Климат города

АРХИВ ПОГОДЫ в La Plata

Время (UTC), дата Ветер
(напр.,м/с)
 
Видим.   Явления Облачность Т
(С)
Тd
(С)
f
(%)
Тe
(С)
Тes
(С)
Комфортность P
(гПа)
Po
(гПа)
Тmin
(С)
Tmax
(С)
R
(мм)
R24
(мм)
S
(см)
00 18.05 штиль 0 10 км 3/0
[Cs]
+10.2 +7.3 82 +10 +10 1017.1 1014.4 +9.6 +12.4
03 18.05 СЗ 2 10 км ясно +9.6 +8.0 90 +8 +8 1017.0 1014.2
06 18.05 штиль 0 10 км ясно +6.5 +5.6 94 +5 +5 1017.0 1014.2
09 18.05 штиль 0 6000 м дымка 3/0
[Ac und]
+6.3 +5.4 94 +5 +5 1017.2 1014.4
12 18.05 З 2 10 км 3/0
[Ac und]
+7.8 +7.4 97 +6 +7 1018.4 1015.6 +5.6 +10.2 4
15 18.05 З 2 10 км 1/0
[Ac cast Ci sp]
+15.2 +10.5 74 +15 +21 1017.5 1014.6
18 18.05 Ю 2 10 км 1/1 900 м
[Cu hum]
+18.2 +10.2 60 +19 +24 1015.4 1012.6
21 18.05 С 3 10 км 6/0
[Ac As]
+14.6 +11.9 84 +14 +14 1016.5 1013.7
00 19.05 СЗ 1 10 км 6/0
[Ac As]
+13.8 +12.5 92 +14 +14 1017.7 1014.9 +5.7 +18.7
03 19.05 ЮЗ 2 10 км 4/0
[Ac As]
+12.4 +10.9 91 +12 +12 1018.4 1015.6
06 19.05 ЮЗ 4 10 км ясно +9.1 +7.4 89 +6 +6 1018.4 1015.6
09 19.05 З 3 10 км ясно +8.0 +7.4 96 +5 +5 1018.1 1015.3
12 19.05 Ю 4 10 км 10/10 210 м
[St]
+9.0 +8.2 95 +6 +6 1020.1 1017.3 +7.9 +13.8
15 19.05 ЮЗ 6 10 км 9/9 360 м
[Sc]
+12.7 +9.4 80 +10 +10 1020.6 1017.8
18 19.05 З 4 10 км в посл. час дождь 9/9 450 м
[Cu Sc]
+14.1 +9.9 76 +13 +13 1019.8 1017.0 0.0
21 19.05 ЮЗ 4 10 км 4/4 450 м
[Sc]
+13.5 +10.5 82 +12 +12 1019.9 1017.2
00 20.05 Ю 3 10 км ясно +10.2 +9.4 95 +8 +8 1021.0 1018.2 +9.0 +15.1
03 20.05 ЮЗ 3 10 км ясно +8.8 +8.2 96 +6 +6 1020.8 1018.0
06 20.05 Ю 3 10 км 5/0
[Ac As]
+8.0 +7.4 96 +5 +5 1020.2 1017.4
09 20.05 З 2 10 км ясно +6.4 +6.4 100 +4 +4 1019.2 1016.4
12 20.05 ЮЗ 2 7000 м дымка 3/0
[Ci fib]
+6.3 +6.1 99 +4 +4 1019.5 1016.8 +5.4 +10.2 0.0
15 20.05 ЮЗ 2 10 км 3/0
[Ci fib]
+15.1 +10.2 73 +15 +22 1018.8 1016.0
18 20.05 В 2 10 км 8/3 750 м
[Cu med, cong Cs]
+17.3 +8.7 57 +18 +20 1017.0 1014.2
21 20.05 штиль 0 10 км 10/0
[Cs]
+13.4 +9.1 75 +13 +13 1016.9 1014.1
00 21.05 штиль 0 10 км 8/0
[Cs]
+9.6 +8.8 95 +9 +9 1017.2 1014.4 +6.0 +17.5
03 21.05 штиль 0 10 км 10/0
[Ac As]
+9.8 +8.8 93 +9 +9 1016.7 1013.8
06 21.05 штиль 0 10 км 10/0
[Ac As]
+9.8 +8.8 93 +9 +9 1017.0 1014.2
09 21.05 СЗ 1 10 км 9/0
[Cs]
+10.8 +9.0 89 +10 +10 1016.5 1013.7
12 21.05 СЗ 1 8000 м дымка 9/0
[Ac As Cs]
+10.4 +9.2 92 +10 +10 1017.6 1014.8 +9.3 +11.0
15 21.05 ЮЗ 3 10 км 5/0
[Ac As]
+15.2 +9.9 71 +15 +19 1017.5 1014.6
18 21.05 З 3 10 км 3/3 600 м
[Cu hum]
+16.2 +8.9 62 +16 +18 1017.0 1014.2
21 21.05 З 2 10 км 1/1 750 м
[Sc diur, vesp]
+12.9 +6.2 64 +13 +13 1018.3 1015.6
00 22.05 З 2 10 км 1/1 600 м
[Sc]
+10.0 +7.3 83 +9 +9 1019.5 1016.8 +9.8 +17.0
03 22.05 З 2 10 км ясно +7.6 +5.6 87 +6 +6 1020.5 1017.7
06 22.05 ЮЗ 2 10 км 1/0
[Ci fib]
+5.4 +3.7 89 +3 +3 1020.8 1018.0
09 22.05 З 2 10 км 4/0
[Ci fib]
+3.6 +3.4 99 +1 +1 1021.2 1018.4
12 22.05 З 2 7000 м дымка 5/0
[Cc]
+4.8 +4.6 99 +2 +3 1022.7 1019.8 +3.4 +11.3
15 22.05 З 3 10 км 1/0
[Ci sp]
+14.0 +4.9 54 +13 +18 1022.3 1019.6
18 22.05 З 4 10 км 1/1 600 м
[Cu hum]
+16.2 +5.5 49 +16 +19 1020.9 1018.1
21 22.05 штиль 0 10 км 1/0
[Ci fib]
+12.8 +7.3 69 +12 +12 1020.9 1018.1
00 23.05 СЗ 1 10 км ясно +9.0 +5.5 79 +8 +8 1021.8 1018.9 +4.8 +16.6
03 23.05 СЗ 2 10 км 1/0
[Ci fib]
+7.2 +4.9 85 +6 +6 1021.7 1018.9
06 23.05 СЗ 2 10 км ясно +6.5 +6.5 100 +4 +4 1021.9 1019.2
09 23.05 СЗ 2 10 км ясно +5.8 +4.2 89 +3 +3 1021.8 1019.0
12 23.05 СЗ 2 10 км 6/0
[Cs]
+8.2 +4.4 77 +6 +7 1023.1 1020.4 +5.6 +9.6
15 23.05 З 3 10 км 1/0
[Ci fib]
+16.2 +4.7 46 +16 +22 1023.7 1020.9
18 23.05 З 3 10 км 1/0
[Cc]
+18.2 +7.0 48 +18 +22 1022.7 1020.0
21 23.05 З 1 10 км 4/0
[Cc]
+14.4 +7.8 65 +15 +15 1023.4 1020.6
00 24.05 штиль 0 10 км 3/0
[Cs]
+9.1 +6.8 86 +8 +8 1024.1 1021.3 +8.2 +18.2
03 24.05 штиль 0 8000 м дымка ясно +7.4 +6.5 94 +6 +6 1024.7 1022.0
06 24.05 СЗ 2 6000 м дымка ясно +6.6 +6.2 97 +5 +5 1024.5 1021.7
09 24.05 З 2 6000 м дымка ясно +6.5 +6.3 99 +4 +4 1024.5 1021.7
12 24.05 штиль 0 7000 м дымка 1/0
[Ci fib]
+6.5 +6.3 99 +5 +6 1026.1 1023.2 +5.2 +9.1
15 24.05 З 2 10 км 1/0
[Ci fib]
+16.3 +8.6 60 +16 +23 1026.1 1023.3
18 24.05 СЗ 2 10 км 1/0
[Ci fib]
+19.8 +9.8 52 +22 +26 комфорт 1024.1 1021.3
21 24.05 С 2 7000 м дым 1/0
[Ci]
+14.6 +9.8 73 +15 +15 1023.8 1021.0

 

Местоположение метеостанции La Plata (Аргентина): широта -34.96 долгота -57.90 высота над уровнем моря 19 м.

В архиве по умолчанию представлена погода в La Plata за последнюю неделю. Архивные данные за месяц целиком и за предыдущие месяцы, начиная с января 2011 года, Вы можете получить, выбрав интересующий диапазон дат из раскрывающегося списка и нажав кнопку "Ввод!".


*Определитесь, кто Вы:
робот инопланетянин человек

Внимание! Время в таблицах - всемирное. Для получения местного времени необходимо прибавить поправку, которая в La Plata равна -3 ч.

Смотрите также архив погоды в соседних городах и на ближайших метеорологических станциях:

Погода в Colonia (Уругвай) (57 км)
Погода в Ezeiza (Аргентина) (60 км)
Погода в Buenos Aires Aeropuerto (Аргентина) (64 км)
Погода в Buenos Aires (Аргентина) (68 км)
Погода в Melilla (Уругвай) (152 км)
Погода в Dolores (Аргентина) (152 км)
Погода в Prado (Уругвай) (156 км)
Погода в Las Flores (Аргентина) (164 км)
Погода в Carrasco (Уругвай) (174 км)
Погода в Florida (Уругвай) (183 км)

Пояснения к столбцам:

Ветер - указаны скорость ветра в м/с - средняя за 10 мин, порывы в срок и между сроками (в фигурных скобках) и направление, откуда дует ветер: С - северный, СВ - северо-восточный, В - восточный, ЮВ - юго-восточный, Ю - южный, ЮЗ - юго-западный, З - западный, СЗ - северо-западный.
Видимость - горизонтальная дальность видимости в метрах или километрах. При видимости от 1 до 10 км при отсутствии осадков обычно наблюдается дымка, при ухудшении видимости до 1 км и менее - туман. В сухую погоду видимость может ухудшаться дымом, пылью или мглою.
Явления - указаны атмосферные явления, наблюдавшиеся в срок или в последний час перед сроком; фигурными скобками обозначены явления, наблюдавшиеся между сроками (за 1-3 часа до срока); квадратными скобками обозначены град или гололедные отложения с указанием их диаметра в мм.
Облачность - указаны через наклонную черту общая и нижняя облачность в баллах и высота нижней границы облаков в метрах; квадратными скобками обозначены формы облаков: Ci - перистые, Cs - перисто-слоистые, Cc - перисто-кучевые, Ac - высококучевые, As - высокослоистые, Sc - слоисто-кучевые, Ns - слоисто-дождевые, Cu - кучевые, Cb - кучево-дождевые. Подробнее классификацию облаков см. в Атласе облаков (PDF).
T - Температура воздуха - температура, измеренная на высоте 2 м над землей.
Td - Температура точки росы - температура, при понижении до которой содержащийся в воздухе водяной пар достигнет насыщения.
f - Относительная влажность воздуха - влажноcть воздуха, измеренная на высоте 2 м над землей.
Te - Эффективная температура - температура, которую ощущает одетый по сезону человек в тени. Характеристика душности погоды. При расчете учитывается влияние влажности воздуха и скорости ветра на теплоощущения человека.
Tes - Эффективная температура на солнце - температура, которую ощущает человек, с поправкой на солнечный нагрев. Характеристика знойности погоды. Зависит от высоты солнца над горизонтом, облачности и скорости ветра. Ночью, в пасмурную погоду, а также при ветре 12 м/с и более поправка равна нулю.
P - Атмосферное давление - приведенное к уровню моря атмосферное давление.
Po - Атмосферное давление - измеренное на уровне метеостанции атмосферное давление.
Tmin - Минимальная температура - минимум температуры воздуха на высоте 2 м над землей.
Tmax - Максимальная температура - максимум температуры воздуха на высоте 2 м над землей.
R - Количество осадков - Количество выпавших осадков за период времени, мм. При наведении курсора мыши на число - период времени, за который выпало указанное количество осадков.
R24 - Количество осадков - Количество выпавших осадков за 24 часа, мм.
S - Снежный покров - Высота снежного покрова, см. При наведении курсора мыши на число - состояние снежного покрова и степень покрытия местности в баллах.